Wheeling, WV

10:38 AM EST on December 11, 2019 (GMT -0500)
Wheeling-Ohio County

Weather History for KHLG - October, 2019

Change the Weather History Date:

Friday, October 18, 2019

  Actual Average Record
Temperature  
Mean Temperature 49 °F 52 °F  
Max Temperature 57 °F 62 °F 81 °F (2016)
Min Temperature 40 °F 43 °F 19 °F (1939)
Degree Days  
Heating Degree Days 16 13  
Month to date heating degree days 139 181  
Since 1 July heating degree days 140 282  
Cooling Degree Days 0 0  
Month to date cooling degree days 40 10  
Year to date cooling degree days 986 688  
Moisture  
Dew Point 37 °F    
Average Humidity 69    
Maximum Humidity 89    
Minimum Humidity 48    
Precipitation  
Precipitation 0.00 in 0.09 in 1.49 in (1928)
Month to date precipitation 2.45 1.51  
Year to date precipitation 30.43 31.28  
Sea Level Pressure  
Sea Level Pressure 30.06 in    
Wind  
Wind Speed 4 mph (NNW)    
Max Wind Speed 13 mph    
Max Gust Speed 16 mph    
Visibility 10 miles    
Events      
T = Trace of Precipitation, MM = Missing Value Source: NWS Daily Summary

Daily Weather History Graph

Daily Weather History Graph

Search for Another Location

Airport or City:

Astronomy

Oct. 18, 2019 Rise Set
Actual Time 7:36 AM EDT 6:38 PM EDT
Civil Twilight 7:08 AM EDT 7:06 PM EDT
Nautical Twilight 6:37 AM EDT 7:37 PM EDT
Astronomical Twilight 6:05 AM EDT 8:09 PM EDT
Moon 9:53 PM EDT (10/18) 12:07 PM EDT (10/18)
Length of Visible Light 11h 57m
Length of Day
11h 02m
Waning Gibbous, 79% of the Moon is Illuminated
Oct 18
Waning Gibbous
Oct 21
Last Quarter
Oct 27
New
Nov 4
First Quarter
Nov 12
Full

Hourly Weather History & Observations

Time (EDT) Temp. Windchill Dew Point Humidity Pressure Visibility Wind Dir Wind Speed Gust Speed Precip Events Conditions
12:53 AM 44.1 °F 40.8 °F 35.1 °F 71% 29.97 in 10.0 mi West 5.8 mph - N/A   Clear
1:53 AM 42.1 °F 39.2 °F 36.0 °F 79% 29.99 in 10.0 mi West 4.6 mph - N/A   Partly Cloudy
2:53 AM 41.0 °F - 36.0 °F 82% 30.00 in 10.0 mi Calm Calm - N/A   Overcast
3:53 AM 43.0 °F - 37.0 °F 80% 30.00 in 10.0 mi Calm Calm - N/A   Overcast
4:53 AM 42.1 °F - 37.0 °F 82% 30.01 in 10.0 mi Calm Calm - N/A   Scattered Clouds
5:53 AM 42.1 °F - 37.9 °F 85% 30.03 in 10.0 mi Calm Calm - N/A   Overcast
6:53 AM 43.0 °F - 37.9 °F 82% 30.04 in 10.0 mi Calm Calm - N/A   Overcast
7:53 AM 42.1 °F 39.2 °F 37.9 °F 85% 30.06 in 10.0 mi WNW 4.6 mph - N/A   Overcast
8:53 AM 42.1 °F 39.2 °F 39.0 °F 89% 30.09 in 10.0 mi West 4.6 mph - N/A   Overcast
9:53 AM 46.9 °F - 39.9 °F 77% 30.10 in 10.0 mi WSW 3.5 mph - N/A   Clear
10:53 AM 50.0 °F - 36.0 °F 59% 30.10 in 10.0 mi WNW 10.4 mph - N/A   Mostly Cloudy
11:53 AM 50.0 °F - 36.0 °F 59% 30.10 in 10.0 mi North 8.1 mph - N/A   Overcast
12:53 PM 51.1 °F - 36.0 °F 56% 30.10 in 10.0 mi Variable 5.8 mph - N/A   Overcast
1:53 PM 54.0 °F - 37.0 °F 53% 30.09 in 10.0 mi Calm Calm - N/A   Scattered Clouds
2:53 PM 55.0 °F - 37.0 °F 51% 30.07 in 10.0 mi WNW 5.8 mph - N/A   Clear
3:53 PM 55.0 °F - 37.0 °F 51% 30.06 in 10.0 mi North 6.9 mph - N/A   Partly Cloudy
4:53 PM 57.0 °F - 37.9 °F 49% 30.06 in 10.0 mi Variable 3.5 mph - N/A   Clear
5:53 PM 55.0 °F - 36.0 °F 49% 30.06 in 10.0 mi Calm Calm - N/A   Clear
6:53 PM 52.0 °F - 37.0 °F 57% 30.06 in 10.0 mi ENE 4.6 mph - N/A   Clear
7:53 PM 48.9 °F - 37.0 °F 64% 30.07 in 10.0 mi ESE 5.8 mph - N/A   Clear
8:53 PM 46.9 °F - 37.0 °F 68% 30.07 in 10.0 mi ESE 4.6 mph - N/A   Clear
9:53 PM 48.0 °F - 36.0 °F 63% 30.08 in 10.0 mi Calm Calm - N/A   Clear
10:53 PM 42.1 °F 38.4 °F 36.0 °F 79% 30.07 in 10.0 mi East 5.8 mph - N/A   Clear
11:53 PM 43.0 °F 40.3 °F 35.1 °F 74% 30.05 in 10.0 mi East 4.6 mph - N/A   Clear